Flag for U.S.A. Weather past 2 weeks in Flagstaff, Arizona, U.S.A.

Now
52 °F

Sunny.


Feels Like: 52 °F
Forecast: 51 / 72 °F
Wind: No wind

Location: Flagstaff Pulliam Airport

Current Time: Sep 2, 2015 at 8:12:38 AM

Latest Report: Sep 2, 2015 at 6:57 AM


Visibility: 10 mi

Pressure: 30.09 "Hg (23.36 "Hg at 2103m altitude)

Humidity: 89%

Dew point: 49 °F

Location of FlagstaffLocation

Historic Weather in Flagstaff — Graph

°F

Flagstaff temperature yesterday

Maximum temperature yesterday: 75 °F (at 12:57 PM)
Minimum temperature yesterday: 49 °F (at 5:57 AM)
Average temperature yesterday: 63 °F

Past Weeks' High & Low Weather Summary

 TemperatureHumidityPressure
High84 °F (Aug 19, 2:57 PM)100% (Aug 25, 11:57 PM)30.37 "Hg (Aug 25, 11:57 PM)
Low47 °F (Aug 29, 5:57 AM)15% (Aug 19, 2:57 PM)29.82 "Hg (Aug 18, 4:57 PM)
Average64 °F63%30.01 "Hg
* Reported Aug 18 6:57 AM — Sep 2 6:57 AM, Flagstaff, Weather by CustomWeather, © 2015

Note: Actual official high and low records may vary slightly from our data, if they occured in-between our weather recording intervals... More about our weather records

Advertising

Flagstaff weather history for previous 24 hours

 ConditionsComfort  
Time TempWeatherWind HumidityBarometerVisibility
6:57 AM
Wed, Sep 2
52 °FSunny.No wind89%30.09 "Hg10 mi
5:57 AM48 °FClear.No wind96%30.06 "Hg10 mi
4:57 AM49 °FClear.No wind93%30.04 "Hg10 mi
3:57 AM49 °FClear.No wind93%30.04 "Hg10 mi
2:57 AM50 °FClear.No wind89%30.05 "Hg10 mi
1:57 AM50 °FClear.No wind93%30.03 "Hg10 mi
12:57 AM52 °FClear.No wind89%30.02 "Hg10 mi
11:57 PM
Tue, Sep 1
56 °FClear.No wind81%30.02 "Hg10 mi
10:57 PM58 °FClear.5 mph75%30.01 "Hg10 mi
9:57 PM60 °FClear.3 mph69%30.02 "Hg10 mi
8:57 PM60 °FClear.6 mph75%30.02 "Hg10 mi
7:57 PM63 °FClear.5 mph68%30.01 "Hg10 mi
6:57 PM66 °FClear.5 mph63%30.00 "Hg10 mi
5:57 PM71 °FSunny.13 mph49%30.00 "Hg10 mi
4:57 PM72 °FSunny.10 mph48%29.99 "Hg10 mi
3:57 PM72 °FSunny.12 mph46%29.98 "Hg10 mi
1:57 PM75 °FSunny.14 mph33%29.96 "Hg10 mi
12:57 PM75 °FSunny.12 mph39%29.99 "Hg10 mi
11:57 AM73 °FSunny.6 mph37%30.01 "Hg10 mi
10:57 AM73 °FSunny.7 mph41%30.02 "Hg10 mi
9:57 AM72 °FSunny.3 mph43%30.02 "Hg10 mi
8:57 AM69 °FSunny.No wind47%30.01 "Hg10 mi
Weather by CustomWeather, © 2015

See weather overviewHow to use our weather pages